Simultaneous Nadir Overpasses (SNOs) Predictions

Prediction of SNOs between AQUA and METOP-C Satellite Orbit:

Table of predicted SNOs for the next 14.0 days since TLE Epoch: 2/22/2020
Index Date (AQUA) Time (AQUA) Lat,Lon (AQUA) SZA (AQUA ) Date (METOP-C) Time (METOP-C) Lat,Lon (METOP-C) SZA (METOP-C ) Distance(km) Time Diff (sec)
1 02/23/2020 19:13:30 73.73,-113.96 83.64 02/23/2020 19:13:06 73.74,-113.95 83.65 0.73 24
2 02/23/2020 20:02:58 -73.82, 53.48 96.27 02/23/2020 20:03:47 -73.82, 53.56 96.29 2.83 49
3 02/26/2020 13:58:08 -73.11, 146.15 98.07 02/26/2020 13:57:01 -73.05, 143.59 97.99 82.98 67
4 02/26/2020 14:47:47 73.74, -47.54 82.61 02/26/2020 14:47:26 73.75, -47.49 82.62 2.19 21
5 02/26/2020 15:37:15 -73.83, 119.90 97.31 02/26/2020 15:38:07 -73.83, 120.01 97.33 3.48 52
6 02/29/2020 09:32:27 -73.22,-147.66 99.01 02/29/2020 09:31:19 -73.17,-149.75 98.96 67.56 68
7 02/29/2020 10:22:04 73.76, 18.86 81.56 02/29/2020 10:21:46 73.77, 18.97 81.57 3.75 18
8 02/29/2020 11:11:31 -73.79,-173.58 98.42 02/29/2020 11:12:28 -73.79,-173.66 98.43 2.52 57
9 03/03/2020 05:06:46 -73.35, -81.48 99.95 03/03/2020 05:05:36 -73.33, -82.97 99.90 47.70 70
10 03/03/2020 05:56:20 73.73, 85.36 80.44 03/03/2020 05:56:07 73.74, 85.31 80.46 2.09 13
11 03/03/2020 06:45:47 -73.81,-107.19 99.48 03/03/2020 06:46:47 -73.80,-107.22 99.50 1.48 60
12 03/06/2020 00:41:04 -73.48, -15.32 100.90 03/06/2020 00:39:53 -73.44, -16.30 100.89 31.59 71
13 03/06/2020 01:30:36 73.75, 151.74 79.38 03/06/2020 01:30:26 73.75, 151.77 79.38 1.05 10
14 03/06/2020 02:20:04 -73.84, -40.81 100.54 03/06/2020 02:21:07 -73.81, -40.77 100.58 3.37 63




NCC Satellite Simultaneous Nadir Overpasses (SNOs) Prediction Service
